Weather History for Tupelo, MS

Change the Weather History Date:

Monday, March 26, 2012

  Actual Average Record
Temperature  
Mean Temperature 66 °F 57 °F  
Max Temperature 79 °F 69 °F 84 °F (1991)
Min Temperature 52 °F 45 °F 22 °F (1955)
Degree Days  
Heating Degree Days 0 9  
Month to date heating degree days 110 313  
Since 1 July heating degree days 2192 2744  
Cooling Degree Days 1 1  
Month to date cooling degree days 58 4  
Year to date cooling degree days 65 6  
Growing Degree Days 16 (Base 50)    
Moisture  
Dew Point 54 °F    
Average Humidity 68    
Maximum Humidity 93    
Minimum Humidity 42    
Precipitation  
Precipitation 0.00 in 0.15 in 2.40 in (1949)
Month to date precipitation 4.87 4.08  
Year to date precipitation 14.23 13.52  
Snow  
Snow 0.00 in 0.00 in T in (1996)
Month to date snowfall 0.0 0.3  
Since 1 July snowfall T 2.1  
Snow Depth 0.00 in    
Sea Level Pressure  
Sea Level Pressure 30.07 in    
Wind  
Wind Speed 5 mph (NE)    
Max Wind Speed 13 mph    
Max Gust Speed 17 mph    
Visibility 10 miles    
Events      
T = Trace of Precipitation, MM = Missing Value Source: NWS Daily Summary

Daily Weather History Graph

Daily Weather History Graph

Search for Another Location

Airport:

Trip Planner

Search our weather history database for the weather conditions in past years. The results will help you decide how hot, cold, wet, or windy it might be!

Date:

Astronomy

Mar. 26, 2012 Rise Set
Actual Time 6:49 AM CDT 7:11 PM CDT
Civil Twilight 6:24 AM CDT 7:36 PM CDT
Nautical Twilight 5:55 AM CDT 8:06 PM CDT
Astronomical Twilight 5:25 AM CDT 8:36 PM CDT
Moon 8:50 AM CDT (3/26) 11:09 PM CDT (3/26)
Length of Visible Light 13h 12m
Length of Day
12h 21m
Waxing Crescent, 15% of the Moon is Illuminated
Mar 26
Waxing Crescent
Mar 30
First Quarter
Apr 6
Full
Apr 13
Last Quarter
Apr 21
New

Hourly Weather History & Observations

Time (CDT) Temp. Dew Point Humidity Pressure Visibility Wind Dir Wind Speed Gust Speed Precip Events Conditions
12:53 AM 57.9 °F 53.1 °F 84% 30.03 in 10.0 mi NNE 6.9 mph - N/A   Clear
1:53 AM 57.0 °F 53.1 °F 87% 30.02 in 10.0 mi ENE 4.6 mph - N/A   Clear
2:53 AM 55.0 °F 52.0 °F 89% 30.03 in 10.0 mi NNE 8.1 mph - N/A   Clear
3:53 AM 54.0 °F 52.0 °F 93% 30.03 in 10.0 mi NNE 5.8 mph - N/A   Clear
4:53 AM 53.1 °F 51.1 °F 93% 30.04 in 9.0 mi NNE 6.9 mph - N/A   Clear
5:53 AM 54.0 °F 51.1 °F 90% 30.06 in 9.0 mi Calm Calm - N/A   Clear
6:53 AM 54.0 °F 51.1 °F 90% 30.07 in 5.0 mi Calm Calm - N/A   Clear
7:53 AM 57.0 °F 53.1 °F 87% 30.09 in 7.0 mi NNE 3.5 mph - N/A   Clear
8:53 AM 61.0 °F 55.0 °F 81% 30.12 in 10.0 mi NE 5.8 mph - N/A   Clear
9:53 AM 66.0 °F 55.0 °F 68% 30.13 in 10.0 mi ENE 6.9 mph - N/A   Clear
10:53 AM 70.0 °F 55.9 °F 61% 30.13 in 10.0 mi NE 6.9 mph - N/A   Clear
11:53 AM 73.0 °F 54.0 °F 51% 30.12 in 10.0 mi NE 6.9 mph - N/A   Clear
12:53 PM 75.0 °F 54.0 °F 48% 30.11 in 10.0 mi NE 9.2 mph - N/A   Clear
1:53 PM 77.0 °F 53.1 °F 43% 30.09 in 10.0 mi NE 8.1 mph - N/A   Clear
2:53 PM 78.1 °F 53.1 °F 42% 30.06 in 10.0 mi North 9.2 mph - N/A   Clear
3:53 PM 78.1 °F 54.0 °F 43% 30.04 in 10.0 mi NE 10.4 mph - N/A   Clear
4:53 PM 79.0 °F 53.1 °F 40% 30.02 in 10.0 mi NNE 5.8 mph - N/A   Clear
5:53 PM 77.0 °F 54.0 °F 45% 30.02 in 10.0 mi NNE 8.1 mph - N/A   Clear
6:53 PM 72.0 °F 55.0 °F 55% 30.03 in 10.0 mi NNE 8.1 mph - N/A   Clear
7:53 PM 68.0 °F 54.0 °F 61% 30.04 in 10.0 mi Calm Calm - N/A   Clear
8:53 PM 64.0 °F 54.0 °F 70% 30.06 in 10.0 mi NNE 3.5 mph - N/A   Clear
9:53 PM 64.0 °F 55.0 °F 73% 30.08 in 10.0 mi Calm Calm - N/A   Clear
10:53 PM 62.1 °F 55.0 °F 78% 30.08 in 10.0 mi Calm Calm - N/A   Clear
11:53 PM 60.1 °F 54.0 °F 80% 30.07 in 10.0 mi Calm Calm - N/A   Clear